Weather History for KMQE - March, 2013

Change the Weather History Date:

Saturday, March 2, 2013

  Actual Average (KBOS) Record (KBOS)
Temperature  
Mean Temperature 36 °F 35 °F  
Max Temperature 41 °F 42 °F 66 °F (2004)
Min Temperature 30 °F 28 °F 0 °F (1886)
Degree Days  
Heating Degree Days 30 30  
Month to date heating degree days 61  
Since 1 July heating degree days 4103  
Cooling Degree Days 0 0  
Month to date cooling degree days 0  
Year to date cooling degree days 0  
Moisture  
Dew Point 25 °F    
Average Humidity 65    
Maximum Humidity 76    
Minimum Humidity 53    
Precipitation  
Precipitation 0.00 in 0.13 in 2.24 in (1983)
Month to date precipitation 0.27  
Year to date precipitation 6.88  
Sea Level Pressure  
Sea Level Pressure 29.66 in    
Wind  
Wind Speed 9 mph (NW)    
Max Wind Speed 13 mph    
Max Gust Speed 20 mph    
T = Trace of Precipitation, MM = Missing Value Source: NWS Daily Summary

Daily Weather History Graph

Daily Weather History Graph

Search for Another Location

Airport or City:

Trip Planner

Search our weather history database for the weather conditions in past years. The results will help you decide how hot, cold, wet, or windy it might be!

Date:

Astronomy

Mar. 02, 2013 Rise Set
Actual Time 6:17 AM EST 5:35 PM EST
Civil Twilight 5:49 AM EST 6:04 PM EST
Nautical Twilight 5:17 AM EST 6:36 PM EST
Astronomical Twilight 4:44 AM EST 7:09 PM EST
Moon 11:19 PM EST (3/2) 8:37 AM EST (3/2)
Length of Visible Light 12h 14m
Length of Day
11h 18m
Waning Gibbous, 74% of the Moon is Illuminated
Mar 2
Waning Gibbous
Mar 4
Last Quarter
Mar 11
New
Mar 19
First Quarter
Mar 27
Full

Hourly Weather History & Observations

Time (EST) Temp. Windchill Dew Point Humidity Pressure Visibility Wind Dir Wind Speed Gust Speed Precip Events Conditions
12:54 AM 33.1 °F 24.9 °F 25.0 °F 72% 29.68 in - NW 10.4 mph 19.6 mph N/A   Unknown
1:54 AM 33.1 °F 25.5 °F 25.0 °F 72% 29.67 in - NW 9.2 mph - N/A   Unknown
2:54 AM 33.1 °F 26.1 °F 25.0 °F 72% 29.67 in - WNW 8.1 mph - N/A   Unknown
3:54 AM 32.0 °F 23.6 °F 25.0 °F 75% 29.67 in - NW 10.4 mph - N/A   Unknown
4:54 AM 32.0 °F 24.2 °F 24.1 °F 73% 29.68 in - WNW 9.2 mph - N/A   Unknown
5:54 AM 30.9 °F 24.3 °F 24.1 °F 76% 29.68 in - WNW 6.9 mph - N/A   Unknown
6:54 AM 30.9 °F 22.8 °F 24.1 °F 76% 29.68 in - WNW 9.2 mph - N/A   Unknown
7:54 AM 33.1 °F 24.9 °F 24.1 °F 70% 29.68 in - WNW 10.4 mph - N/A   Unknown
8:54 AM 35.1 °F 27.4 °F 24.1 °F 64% 29.68 in - NW 10.4 mph 19.6 mph N/A   Unknown
9:54 AM 37.0 °F 28.9 °F 24.1 °F 59% 29.68 in - NW 12.7 mph - N/A   Unknown
10:54 AM 37.9 °F 30.5 °F 24.1 °F 57% 29.67 in - NNW 11.5 mph 18.4 mph N/A   Unknown
11:54 AM 39.0 °F 34.0 °F 24.1 °F 55% 29.66 in - NNW 6.9 mph - N/A   Unknown
12:54 PM 39.9 °F 33.9 °F 25.0 °F 55% 29.64 in - NW 9.2 mph - N/A   Unknown
1:54 PM 41.0 °F 38.0 °F 25.0 °F 53% 29.64 in - WNW 4.6 mph - N/A   Unknown
2:54 PM 39.9 °F 35.8 °F 25.0 °F 55% 29.64 in - West 5.8 mph - N/A   Unknown
3:54 PM 37.9 °F 32.7 °F 26.1 °F 62% 29.64 in - NW 6.9 mph - N/A   Unknown
4:54 PM 37.9 °F 32.7 °F 26.1 °F 62% 29.64 in - WNW 6.9 mph - N/A   Unknown
5:54 PM 37.0 °F 32.4 °F 26.1 °F 65% 29.65 in - WNW 5.8 mph - N/A   Unknown
6:54 PM 36.0 °F 31.1 °F 27.0 °F 70% 29.67 in - WNW 5.8 mph - N/A   Unknown
7:54 PM 36.0 °F 29.6 °F 26.1 °F 67% 29.67 in - NW 8.1 mph - N/A   Unknown
8:54 PM 36.0 °F 28.0 °F 23.0 °F 59% 29.67 in - NW 11.5 mph - N/A   Unknown
9:54 PM 35.1 °F 27.4 °F 23.0 °F 61% 29.66 in - NNW 10.4 mph - N/A   Unknown
10:54 PM 34.0 °F 25.0 °F 23.0 °F 64% 29.65 in - NW 12.7 mph - N/A   Unknown
11:54 PM 33.1 °F 25.5 °F 23.0 °F 66% 29.65 in - NW 9.2 mph - N/A   Unknown